Location: Rodson Ranch
(38.7188°N, 119.3202°W)
Time: 16:32:47
(UTC+00:00)

COSMOS 2406 - Pass Details

Date: 29 October 2020
Orbit: 843 x 864 km, 71.0° (Epoch: 23 November)

Event Time Altitude Azimuth Distance (km) Brightness Sun altitude
Exits shadow 12:41:47 24° 320° (NW) 1,695 4.4 -20.0°
Drops below altitude 10° 12:45:23 10° 358° (N) 2,471 5.6 -19.3°
Sets 12:48:18 0° 12° (NNE) 3,412 6.5 -18.7°
